Skip Page Navigation
NASA JPL Caltech
NASA Logo - Jet Propulsion Laboratory + View the NASA Portal
+ Center for Near-Earth Object Studies
JPL Home Earth Solar System Stars & Galaxies Technology
JPL Solar System Dynamics
BODIES ORBITS EPHEMERIDES TOOLS PHYSICAL DATA DISCOVERY FAQ SITE MAP
JPL Small-Body Database Browser
Search: [ help ]  
413188 (2002 TC310)
Classification: Outer Main-belt Asteroid          SPK-ID: 2413188
Ephemeris | Orbit Diagram | Orbital Elements | Mission Design | Physical Parameters | Discovery Circumstances | Close-Approach Data ]

[ show orbit diagram ]
Orbital Elements at Epoch 2459000.5 (2020-May-31.0) TDB
Reference: JPL 12 (heliocentric ecliptic J2000)
 Element Value Uncertainty (1-sigma)   Units 
e .08128184815061786 6.8475e-08  
a 3.213825558343813 4.0062e-08 au
q 2.952599877327937 2.2403e-07 au
i 13.18278898535762 9.8373e-06 deg
node 56.5139056272406 2.7383e-05 deg
peri 271.1642025635412 6.5922e-05 deg
M 67.72128316640612 5.8467e-05 deg
tp 2458604.628209997414
(2019-May-01.12821000)
0.00034254 TDB
period 2104.417366852648
5.76
3.9349e-05
1.077e-07
d
yr
n .1710687269885125 3.1987e-09 deg/d
Q 3.47505123935969 4.3319e-08 au
  Orbit Determination Parameters
   # obs. used (total)      111  
   data-arc span      6229 days (17.05 yr)  
   first obs. used      2002-10-04  
   last obs. used      2019-10-24  
   planetary ephem.      DE431  
   SB-pert. ephem.      SB431-N16  
   condition code      0  
   norm. resid. RMS      .60108  
   source      ORB  
   producer      Otto Matic  
   solution date      2019-Nov-08 14:34:49  

Additional Information
 Earth MOID = 1.98114 au 
 Jupiter MOID = 1.82683 au 
 T_jup = 3.144 
[ show covariance matrix ]

Ephemeris | Orbit Diagram | Orbital Elements | Mission Design | Physical Parameters | Discovery Circumstances | Close-Approach Data ]

Physical Parameter Table
Parameter Symbol Value Units Sigma Reference Notes
absolute magnitude H 16.2   n/a MPO495096  

413188 (2002 TC310)          Discovered 2002-Oct-04 by Sloan Digital Sky Survey at Apache Point
Reference: Last Updated: 2014-11-10

[ show close-approach data ]
Alternate Designations
 2002 TC310 = 2006 JJ49 
Ephemeris | Orbit Diagram | Orbital Elements | Mission Design | Physical Parameters | Discovery Circumstances | Close-Approach Data ]
ABOUT SSD CREDITS/AWARDS PRIVACY/COPYRIGHT GLOSSARY LINKS
FirstGov 2020-Oct-25 06:22 UT
(server date/time)  
NASA Home Page
Site Manager:   Ryan S. Park
Webmaster  Alan B. Chamberlin